| time (UTC) | temp F | wind direction | speed MPH | gust MPH | rain 1hr in | rain 24hr in | rain mn in | humidity % | barometer mb |
| 20260507151555 | 59 | 284 | 2.0 | 13.0 | 0.00 | 0.00 | 0.00 | 62 | 1013.2 |
| 20260507150055 | 58 | 185 | 6.0 | 17.0 | 0.00 | 0.00 | 0.00 | 62 | 1013.4 |
| 20260507144550 | 58 | 224 | 5.0 | 11.0 | 0.00 | 0.00 | 0.00 | 65 | 1013.6 |
| 20260507143057 | 57 | 152 | 3.0 | 15.0 | 0.00 | 0.00 | 0.00 | 65 | 1013.6 |
| 20260507141547 | 56 | 195 | 4.0 | 11.0 | 0.00 | 0.00 | 0.00 | 67 | 1013.5 |
| 20260507140040 | 55 | 306 | 3.0 | 11.0 | 0.00 | 0.00 | 0.00 | 70 | 1013.8 |
| 20260507134536 | 54 | 281 | 4.0 | 12.0 | 0.00 | 0.00 | 0.00 | 72 | 1013.6 |
| 20260507133042 | 53 | 170 | 3.0 | 10.0 | 0.00 | 0.00 | 0.00 | 74 | 1013.6 |
| 20260507131537 | 51 | 175 | 3.0 | 9.0 | 0.00 | 0.00 | 0.00 | 76 | 1013.7 |
| 20260507130034 | 50 | 210 | 4.0 | 8.0 | 0.00 | 0.00 | 0.00 | 77 | 1013.9 |
| 20260507124528 | 49 | 207 | 3.0 | 9.0 | 0.00 | 0.00 | 0.00 | 78 | 1014.1 |
| 20260507123028 | 48 | 175 | 1.0 | 8.0 | 0.00 | 0.00 | 0.00 | 80 | 1014.0 |
| 20260507121527 | 47 | 212 | 3.0 | 7.0 | 0.00 | 0.00 | 0.00 | 81 | 1014.1 |
| 20260507120027 | 46 | 20 | 2.0 | 5.0 | 0.00 | 0.00 | 0.00 | 81 | 1014.0 |
| 20260507114524 | 46 | 210 | 3.0 | 7.0 | 0.00 | 0.00 | 0.00 | 81 | 1013.9 |
| 20260507113026 | 45 | 198 | 1.0 | 6.0 | 0.00 | 0.00 | 0.00 | 81 | 1013.9 |
| 20260507111522 | 46 | 220 | 1.0 | 5.0 | 0.00 | 0.00 | 0.00 | 80 | 1013.8 |
| 20260507110019 | 46 | 204 | 2.0 | 5.0 | 0.00 | 0.00 | 0.00 | 79 | 1013.7 |
| 20260507104517 | 46 | 276 | 2.0 | 5.0 | 0.00 | 0.00 | 0.00 | 78 | 1013.8 |
| 20260507103016 | 46 | 238 | 3.0 | 6.0 | 0.00 | 0.00 | 0.00 | 77 | 1013.8 |
| 20260507101517 | 46 | 139 | 0.0 | 5.0 | 0.00 | 0.00 | 0.00 | 76 | 1014.0 |
| 20260507100016 | 46 | 222 | 0.0 | 3.0 | 0.00 | 0.00 | 0.00 | 75 | 1014.1 |
| 20260507094510 | 46 | 193 | 2.0 | 5.0 | 0.00 | 0.00 | 0.00 | 74 | 1014.1 |
| 20260507093013 | 47 | 225 | 0.0 | 4.0 | 0.00 | 0.00 | 0.00 | 72 | 1014.1 |
| 20260507091504 | 48 | 179 | 0.0 | 7.0 | 0.00 | 0.00 | 0.00 | 71 | 1014.2 |
| 20260507090004 | 48 | 199 | 1.0 | 4.0 | 0.00 | 0.00 | 0.00 | 71 | 1014.3 |
| 20260507084503 | 48 | 226 | 2.0 | 7.0 | 0.00 | 0.00 | 0.00 | 70 | 1014.3 |
| 20260507083100 | 48 | 215 | 2.0 | 5.0 | 0.00 | 0.00 | 0.00 | 69 | 1014.4 |
| 20260507081600 | 48 | 214 | 2.0 | 7.0 | 0.00 | 0.00 | 0.00 | 69 | 1014.4 |
| 20260507080057 | 48 | 216 | 2.0 | 5.0 | 0.00 | 0.00 | 0.00 | 68 | 1014.4 |
| 20260507074603 | 48 | 216 | 1.0 | 5.0 | 0.00 | 0.00 | 0.00 | 66 | 1014.5 |
| 20260507073055 | 49 | 210 | 2.0 | 5.0 | 0.00 | 0.00 | 0.00 | 66 | 1014.5 |
| 20260507071604 | 49 | 218 | 1.0 | 6.0 | 0.00 | 0.00 | 0.00 | 65 | 1014.6 |
| 20260507064554 | 49 | 222 | 1.0 | 5.0 | 0.00 | 0.00 | 0.00 | 63 | 1014.9 |
| 20260507063048 | 50 | 216 | 1.0 | 5.0 | 0.00 | 0.00 | 0.00 | 62 | 1015.0 |
| 20260507061547 | 51 | 239 | 2.0 | 6.0 | 0.00 | 0.01 | 0.00 | 60 | 1015.1 |
| 20260507060045 | 51 | 246 | 2.0 | 8.0 | 0.00 | 0.01 | 0.00 | 59 | 1015.1 |
| 20260507054605 | 52 | 248 | 3.0 | 6.0 | 0.00 | 0.01 | 0.00 | 58 | 1015.2 |
| 20260507053041 | 50 | 283 | 1.0 | 4.0 | 0.00 | 0.01 | 0.00 | 65 | 1015.2 |
| 20260507051546 | 47 | 329 | 0.0 | 0.0 | 0.00 | 0.01 | 0.01 | 77 | 1015.1 |
| 20260507050046 | 46 | 336 | 0.0 | 0.0 | 0.00 | 0.01 | 0.01 | 79 | 1015.1 |
| 20260507044539 | 46 | 336 | 0.0 | 0.0 | 0.00 | 0.01 | 0.01 | 79 | 1015.2 |
| 20260507043036 | 46 | 336 | 0.0 | 0.0 | 0.00 | 0.01 | 0.01 | 78 | 1015.2 |
| 20260507041540 | 46 | 336 | 0.0 | 0.0 | 0.00 | 0.01 | 0.01 | 77 | 1015.2 |
| 20260507040040 | 46 | 336 | 0.0 | 0.0 | 0.00 | 0.01 | 0.01 | 75 | 1015.3 |
| 20260507034535 | 46 | 336 | 0.0 | 0.0 | 0.00 | 0.01 | 0.01 | 76 | 1015.4 |
| 20260507033036 | 45 | 336 | 0.0 | 0.0 | 0.00 | 0.01 | 0.01 | 74 | 1015.5 |
| 20260507031539 | 46 | 336 | 0.0 | 0.0 | 0.00 | 0.01 | 0.01 | 73 | 1015.3 |
| 20260507030033 | 46 | 336 | 0.0 | 0.0 | 0.00 | 0.01 | 0.01 | 73 | 1015.4 |
| 20260507024537 | 46 | 336 | 0.0 | 0.0 | 0.00 | 0.01 | 0.01 | 71 | 1015.2 |
| 20260507023033 | 47 | 336 | 0.0 | 0.0 | 0.00 | 0.01 | 0.01 | 70 | 1015.1 |
| 20260507021537 | 48 | 333 | 0.0 | 0.0 | 0.00 | 0.01 | 0.01 | 67 | 1015.0 |
| 20260507020031 | 49 | 335 | 0.0 | 0.0 | 0.00 | 0.01 | 0.01 | 64 | 1014.9 |
| 20260507014534 | 51 | 336 | 0.0 | 0.0 | 0.00 | 0.01 | 0.01 | 61 | 1014.7 |
| 20260507013036 | 53 | 336 | 0.0 | 0.0 | 0.00 | 0.01 | 0.01 | 56 | 1014.7 |
| 20260507011538 | 55 | 335 | 0.0 | 2.0 | 0.00 | 0.01 | 0.01 | 50 | 1014.7 |
| 20260507010040 | 58 | 333 | 0.0 | 2.0 | 0.00 | 0.01 | 0.01 | 42 | 1014.5 |
| 20260507004529 | 59 | 336 | 0.0 | 4.0 | 0.00 | 0.01 | 0.01 | 36 | 1014.6 |
| 20260507003029 | 60 | 354 | 2.0 | 5.0 | 0.00 | 0.01 | 0.01 | 35 | 1014.6 |
| 20260507001546 | 61 | 359 | 0.0 | 4.0 | 0.00 | 0.01 | 0.01 | 35 | 1014.6 |
| 20260507000032 | 61 | 359 | 2.0 | 7.0 | 0.00 | 0.01 | 0.01 | 34 | 1014.6 |
| 20260506234527 | 61 | 359 | 1.0 | 6.0 | 0.00 | 0.01 | 0.01 | 34 | 1014.8 |
| 20260506233029 | 61 | 31 | 3.0 | 7.0 | 0.00 | 0.01 | 0.01 | 35 | 1014.7 |
| 20260506231527 | 61 | 32 | 4.0 | 10.0 | 0.00 | 0.01 | 0.01 | 34 | 1014.7 |
| 20260506230029 | 61 | 36 | 1.0 | 7.0 | 0.00 | 0.01 | 0.01 | 36 | 1014.8 |
| 20260506224525 | 61 | 35 | 4.0 | 10.0 | 0.00 | 0.01 | 0.01 | 33 | 1014.8 |
| 20260506223025 | 62 | 35 | 3.0 | 9.0 | 0.00 | 0.01 | 0.01 | 33 | 1014.9 |
| 20260506221524 | 62 | 33 | 3.0 | 11.0 | 0.00 | 0.01 | 0.01 | 35 | 1014.9 |
| 20260506220023 | 61 | 359 | 3.0 | 9.0 | 0.00 | 0.01 | 0.01 | 35 | 1015.0 |
| 20260506214521 | 61 | 31 | 1.0 | 9.0 | 0.00 | 0.01 | 0.01 | 35 | 1015.0 |
| 20260506213021 | 61 | 28 | 4.0 | 9.0 | 0.00 | 0.01 | 0.01 | 34 | 1015.3 |
| 20260506211535 | 61 | 27 | 6.0 | 13.0 | 0.00 | 0.01 | 0.01 | 34 | 1015.5 |
| 20260506210030 | 61 | 31 | 4.0 | 12.0 | 0.00 | 0.01 | 0.01 | 34 | 1015.8 |
| 20260506204522 | 61 | 25 | 5.0 | 14.0 | 0.00 | 0.01 | 0.01 | 34 | 1016.0 |
| 20260506203017 | 60 | 8 | 2.0 | 12.0 | 0.00 | 0.01 | 0.01 | 35 | 1016.2 |
| 20260506201516 | 60 | 8 | 3.0 | 9.0 | 0.00 | 0.01 | 0.01 | 34 | 1016.3 |
| 20260506200014 | 60 | 23 | 1.0 | 12.0 | 0.00 | 0.01 | 0.01 | 37 | 1016.4 |
| 20260506194513 | 60 | 8 | 4.0 | 10.0 | 0.00 | 0.01 | 0.01 | 36 | 1016.5 |
| 20260506193012 | 60 | 19 | 4.0 | 10.0 | 0.00 | 0.01 | 0.01 | 35 | 1016.6 |
| 20260506191510 | 58 | 22 | 4.0 | 12.0 | 0.00 | 0.01 | 0.01 | 35 | 1016.6 |
| 20260506190008 | 58 | 24 | 3.0 | 8.0 | 0.00 | 0.01 | 0.01 | 35 | 1016.7 |
| 20260506184508 | 58 | 23 | 3.0 | 10.0 | 0.00 | 0.01 | 0.01 | 36 | 1016.7 |
| 20260506183006 | 58 | 21 | 4.0 | 15.0 | 0.00 | 0.01 | 0.01 | 37 | 1017.0 |
| 20260506181512 | 57 | 359 | 3.0 | 12.0 | 0.00 | 0.01 | 0.01 | 36 | 1017.1 |
| 20260506180002 | 56 | 24 | 4.0 | 11.0 | 0.00 | 0.01 | 0.01 | 38 | 1017.3 |
| 20260506174600 | 56 | 33 | 5.0 | 10.0 | 0.00 | 0.01 | 0.01 | 37 | 1017.4 |
| 20260506173127 | 56 | 330 | 4.0 | 8.0 | 0.00 | 0.01 | 0.01 | 39 | 1017.4 |
| 20260506171604 | 55 | 333 | 3.0 | 9.0 | 0.00 | 0.01 | 0.01 | 39 | 1017.5 |
| 20260506170112 | 55 | 349 | 6.0 | 12.0 | 0.00 | 0.01 | 0.01 | 38 | 1017.6 |
| 20260506164558 | 55 | 326 | 6.0 | 13.0 | 0.00 | 0.01 | 0.01 | 39 | 1017.6 |
| 20260506163058 | 56 | 22 | 3.0 | 8.0 | 0.00 | 0.01 | 0.01 | 41 | 1017.5 |
| 20260506161554 | 56 | 305 | 4.0 | 9.0 | 0.00 | 0.02 | 0.01 | 43 | 1017.4 |
| 20260506160052 | 56 | 307 | 6.0 | 11.0 | 0.00 | 0.02 | 0.01 | 42 | 1017.2 |
| 20260506154607 | 55 | 297 | 5.0 | 11.0 | 0.00 | 0.02 | 0.01 | 42 | 1017.0 |
| 20260506153047 | 55 | 31 | 4.0 | 9.0 | 0.00 | 0.02 | 0.01 | 46 | 1017.0 |